Retour au catalogue

STARLINK-32570

ActifCommunicationsVLEO
NORAD 62137·PAYLOAD·🇺🇸 United States

Lancé Nov 27, 2024 depuis Cape Canaveral Space Force Station

Loading…

Prochains Passages (prochaines 24 heures)

TLE

FraisSource: CelesTrak SupGP

Époque: Sep 15, 2026, 02:18 UTC

1 62137C 24222Z   26258.09631944  .00039487  00000+0  14301-2 0  2589
2 62137  43.0029 146.5236 0001462 273.3936 176.7102 15.27561693    12

Suivez STARLINK-32570 en temps réel avec AllMySat

Download on the App Store